RH
43 28 28 44 67 66 72 65 65 66 67 48 26 21 11 7 7 11 16 19 16 15 11 6 9 12 16 38 46 51 50 50 44 35 42 47 44 44 42 40 37 29 30 36 36
64 34 29 36 53 64 78 76 65 61 63 66 51 18 10 8 7 11 21 20 17 16 16 10 12 16 20 36 46 48 49 48 36 28 35 38 40 36 33 30 25 10 14 12 15
71 56 31 28 47 63 71 85 82 75 65 62 66 34 11 8 8 18 22 24 18 15 16 16 14 22 28 34 36 40 40 42 38 31 28 27 27 27 26 25 21 9 8 7 10
78 76 42 29 39 68 68 68 70 73 72 72 65 69 14 8 19 19 23 24 21 19 20 23 20 22 24 23 21 21 18 34 28 34 32 29 27 23 15 8 8 8 8 7 11
86 79 73 32 35 72 69 64 62 56 59 69 72 71 34 12 19 26 25 25 22 22 22 28 24 29 29 28 25 22 20 20 18 18 24 21 14 10 7 8 8 8 8 9 10
86 84 80 52 29 68 77 71 64 57 60 63 69 63 53 21 22 30 30 28 26 27 28 31 36 32 35 33 31 25 24 20 15 13 15 15 11 10 8 9 8 8 12 14 14
94 94 86 80 33 46 81 76 63 67 61 66 65 60 64 37 28 31 32 31 31 30 32 34 35 30 35 36 32 29 20 17 13 11 11 10 9 14 13 14 9 9 15 16 13
83 96 96 82 66 28 77 79 75 75 68 62 61 62 55 41 27 30 38 36 37 34 36 37 37 36 37 33 32 29 24 17 19 23 13 12 12 18 17 14 16 17 19 15 13
80 82 91 91 79 39 39 80 81 81 73 63 55 55 52 51 38 32 39 42 41 35 37 39 39 38 37 39 37 30 24 26 23 23 25 24 22 21 20 19 14 16 17 20 17
98 82 81 89 82 66 28 64 84 84 78 65 56 48 47 46 40 30 42 43 42 40 38 40 40 39 39 39 39 31 33 33 32 26 25 24 21 22 24 20 23 19 14 22 17
100 98 82 85 89 79 30 65 85 80 82 63 47 49 50 50 32 20 45 46 46 43 42 40 41 41 34 39 44 44 39 37 29 31 29 26 22 18 21 23 20 20 16 22 20
100 100 99 92 96 98 35 49 80 68 69 65 55 52 53 51 38 20 40 53 51 44 44 46 46 30 40 46 43 46 43 37 34 29 30 25 16 12 15 18 18 20 17 21 24
100 100 99 100 100 98 75 31 80 82 70 59 56 54 55 52 44 28 35 55 54 50 46 45 41 37 44 44 43 45 40 37 33 26 25 24 19 11 11 12 14 13 18 20 26
99 100 100 100 99 97 83 37 69 76 58 66 66 57 53 51 46 35 35 51 58 55 52 49 47 44 44 47 45 43 40 36 34 31 30 28 32 18 11 11 14 16 17 18 21
99 100 100 100 85 82 74 43 60 58 95 56 59 54 48 48 53 44 42 52 58 54 52 50 48 47 48 46 47 40 44 45 37 35 33 25 32 15 11 11 12 14 15 20 24
100 100 99 100 96 86 66 48 62 89 94 52 44 49 50 50 52 50 46 51 53 56 54 49 47 47 45 45 46 48 49 39 34 34 42 19 29 13 14 19 18 16 19 21 25
100 100 99 100 96 97 94 76 77 97 62 48 46 42 51 50 53 52 50 51 56 59 57 56 54 51 43 39 42 44 44 36 46 51 47 33 36 17 17 20 21 23 26 25 28
100 100 98 100 100 99 94 79 68 64 60 44 42 44 48 49 52 52 51 48 50 54 54 56 55 53 51 47 38 36 35 33 42 60 49 36 37 24 20 16 16 19 20 24 25
99 99 100 100 100 99 92 85 58 55 59 43 45 51 52 48 50 54 52 48 43 50 52 52 54 43 46 46 47 40 38 32 35 38 38 27 26 23 22 20 16 22 18 18 21
99 99 99 99 100 100 94 68 57 48 46 49 39 43 48 50 55 56 53 47 46 48 48 46 48 43 40 45 42 41 37 37 36 43 47 32 28 20 20 20 20 18 18 18 21
99 99 99 98 100 98 84 65 58 50 47 48 40 37 39 46 51 50 47 47 42 44 48 49 43 42 41 42 38 40 41 37 36 33 40 40 24 22 22 22 21 20 20 19 20
98 97 99 98 97 97 89 72 58 52 48 50 45 36 26 38 46 47 47 45 45 39 48 50 49 44 39 38 39 42 37 38 37 36 34 33 25 24 24 23 22 22 23 22 23
98 98 99 100 97 94 93 75 61 58 45 43 43 40 33 31 44 47 49 48 40 39 45 48 53 48 45 44 43 42 39 42 40 36 32 35 28 25 25 24 25 24 23 21 24
97 98 98 99 96 96 96 81 60 52 51 48 43 40 38 37 34 33 43 41 39 42 43 44 51 48 44 38 37 38 35 39 39 41 37 34 28 26 26 27 26 26 24 24 28
96 96 96 98 97 96 97 78 60 52 52 46 43 41 39 39 39 41 44 42 41 40 42 47 50 48 44 38 39 37 34 34 38 30 39 22 28 21 22 24 26 27 25 28 28
94 97 99 91 94 100 92 73 56 52 53 46 41 35 38 35 37 33 41 42 40 41 42 44 49 48 44 43 43 38 38 35 33 36 36 33 32 21 24 26 23 24 26 29 28
95 98 98 95 88 99 70 69 54 54 53 44 46 37 40 40 42 40 40 40 38 40 42 44 44 43 45 41 40 40 36 37 37 35 35 34 27 25 23 24 27 26 28 29 31
Wind_Speed
26 24 23 22 20 18 16 15 12 9 8 7 12 13 12 13 14 14 11 9 9 8 10 14 18 22 25 27 23 20 12 10 6 5 9 12 12 12 13 14 17 21 22 22 22
28 26 25 24 22 20 19 19 18 16 15 12 9 12 12 12 14 13 13 10 10 11 11 14 19 21 24 24 22 18 16 11 9 6 8 12 14 14 16 18 20 18 19 19 18
31 28 26 26 23 21 20 20 20 21 20 17 13 11 13 13 12 12 14 13 12 12 12 12 14 20 22 23 19 19 18 14 13 11 10 12 14 17 19 22 23 21 18 16 17
32 30 27 26 25 22 18 15 14 13 16 19 18 14 13 13 10 16 16 14 14 13 14 13 13 16 18 18 19 18 17 19 19 19 17 17 19 20 22 19 19 18 17 15 15
33 31 28 27 27 25 21 18 16 14 12 14 16 17 15 15 14 14 18 16 15 14 13 15 17 15 14 12 13 13 12 15 18 20 21 20 17 19 19 20 19 16 16 15 15
36 33 32 29 28 28 26 21 20 16 14 13 16 17 17 16 17 15 20 19 17 15 15 17 15 14 12 10 10 9 10 14 17 18 20 19 17 18 14 18 17 16 13 12 13
39 36 34 31 29 30 28 25 22 18 16 15 16 19 21 13 18 19 22 22 19 17 17 17 14 14 11 8 12 13 14 14 15 17 20 18 17 10 12 12 13 13 11 12 12
43 38 34 33 30 31 32 29 24 21 20 17 17 20 22 18 22 25 23 25 23 22 19 17 14 14 13 11 10 11 13 12 5 8 13 15 14 8 11 11 12 12 11 10 12
47 42 37 34 32 32 34 32 29 25 22 21 19 19 22 22 24 25 25 24 24 24 22 20 17 16 15 13 12 9 8 5 8 7 10 13 13 10 12 13 11 13 13 12 12
47 45 40 37 35 33 33 35 32 28 26 23 21 17 18 11 22 26 30 25 22 25 25 23 22 22 20 16 9 4 7 11 11 6 12 16 20 14 17 18 16 16 17 12 10
45 46 42 39 36 35 34 37 36 34 32 28 14 12 16 12 18 26 28 31 29 24 27 27 28 28 24 17 12 15 14 14 14 13 20 22 26 22 19 24 22 19 16 12 10
48 47 45 41 40 38 37 42 37 35 30 28 25 21 20 18 20 27 33 31 29 33 28 27 30 23 17 17 15 15 16 18 19 16 21 25 29 25 24 26 24 21 18 14 13
49 46 48 44 42 43 40 36 37 34 30 29 25 24 20 23 23 25 32 34 34 31 34 32 23 25 24 23 18 17 19 18 17 18 20 25 33 26 17 21 28 28 24 20 18
52 50 52 49 48 46 44 37 38 33 23 32 35 35 28 30 30 24 28 33 33 35 30 29 29 25 18 22 20 16 13 14 15 14 9 11 10 30 22 21 17 18 22 21 19
55 50 54 57 59 54 42 39 38 29 4 17 28 30 28 35 27 31 25 32 34 34 33 28 22 27 29 23 18 21 16 16 17 18 19 24 11 26 23 22 13 20 19 19 18
58 59 57 63 57 49 40 40 35 18 12 13 17 27 28 36 38 18 28 28 32 31 31 30 23 18 21 22 22 21 17 15 15 13 6 23 16 13 9 4 5 11 11 12 16
52 52 55 60 62 52 46 46 30 17 17 17 23 25 29 34 32 37 30 33 33 27 29 26 29 28 16 12 14 18 18 3 3 3 6 4 7 16 12 9 11 4 4 5 10
60 41 56 72 54 48 48 50 20 34 26 14 27 23 28 29 35 36 34 37 37 33 25 25 16 31 30 29 18 19 21 8 5 4 3 4 8 4 3 4 6 8 9 8 9
52 47 56 62 62 57 53 52 41 33 47 19 23 25 27 31 26 36 37 36 39 41 24 23 23 17 31 29 27 19 25 22 9 7 2 7 14 17 17 15 9 8 5 7 8
47 50 58 67 66 57 63 60 56 25 26 42 27 27 30 32 27 34 31 33 39 38 36 16 11 21 18 23 25 28 21 13 10 3 4 7 11 17 6 3 4 5 4 7 8
35 50 57 72 68 65 75 73 42 34 24 45 38 26 25 33 33 36 24 22 28 36 34 33 18 9 20 24 29 27 26 15 10 10 5 2 5 3 7 9 5 5 5 6 4
42 24 44 64 63 72 70 64 43 47 28 39 32 31 21 30 37 34 38 29 23 26 41 37 21 17 18 14 17 24 26 30 13 7 13 6 10 2 5 6 8 4 2 6 8
43 29 48 57 57 71 57 53 42 50 44 32 33 30 25 23 27 37 35 29 24 27 29 36 25 13 14 19 18 17 23 28 31 19 15 8 5 9 12 11 11 9 18 16 13
28 25 60 61 66 70 54 60 47 45 45 38 32 30 34 24 25 17 34 24 24 16 21 23 33 32 23 13 21 20 23 20 29 21 30 28 24 18 11 12 16 24 23 18 17
36 22 58 61 47 62 55 57 55 43 44 42 37 36 36 27 27 17 25 29 24 24 20 27 26 31 36 22 11 16 19 23 31 34 21 33 35 26 23 23 24 26 24 23 24
42 22 58 65 63 51 62 58 67 50 49 46 35 34 34 31 31 28 19 25 28 25 22 27 18 31 27 22 26 24 19 16 13 24 33 35 35 19 22 26 25 18 20 20 20
38 22 63 54 72 55 74 63 72 55 47 46 35 33 30 24 21 19 14 15 18 23 26 28 29 16 30 31 28 26 27 20 20 19 20 27 27 28 28 27 23 21 19 16 16
Wind_Direction
245 250 247 245 247 247 246 241 246 252 276 292 258 256 255 255 242 219 205 193 181 173 177 178 179 180 180 182 186 191 196 190 200 209 203 213 231 249 262 271 282 283 276 272 277
242 243 246 242 243 249 245 245 248 251 259 270 289 262 252 244 244 218 202 187 187 178 178 184 185 185 188 193 199 208 208 209 213 208 207 226 233 252 266 281 288 285 270 274 274
241 241 241 244 245 247 249 248 255 255 252 255 264 281 255 239 232 204 197 189 187 187 179 186 188 192 196 197 213 222 223 223 230 236 239 244 255 269 276 279 285 285 277 273 268
238 239 239 238 237 241 239 237 243 243 250 249 251 263 261 234 212 209 197 198 192 191 183 182 187 192 202 210 222 230 233 236 236 245 252 261 272 275 275 281 278 278 279 269 265
236 236 237 237 232 233 234 234 237 244 257 252 243 248 255 238 208 200 198 200 194 197 190 189 192 192 195 204 217 234 230 240 248 253 257 265 273 274 275 277 274 271 271 272 267
238 234 234 234 232 226 229 234 234 244 254 255 244 242 241 241 209 206 200 199 197 197 191 191 199 203 211 219 230 243 251 253 255 258 262 265 270 271 282 268 269 264 264 263 268
235 234 232 232 232 227 227 226 229 239 248 249 247 241 239 222 216 209 202 201 200 202 202 209 216 224 230 230 244 258 265 262 266 262 263 267 265 281 263 279 263 262 264 270 276
234 233 231 229 231 230 226 225 229 238 246 248 251 247 241 222 222 210 204 208 205 204 209 214 219 229 238 234 247 266 276 281 255 275 252 253 261 273 294 285 263 260 264 277 265
232 231 229 227 227 230 227 227 229 234 239 244 248 253 252 231 226 209 209 207 210 210 212 219 224 233 238 245 256 267 250 280 273 294 271 257 269 279 295 301 281 269 263 278 263
228 229 227 225 224 226 225 224 225 230 232 237 245 252 249 242 227 213 211 208 209 212 217 222 228 236 239 237 248 238 245 271 271 278 291 280 278 280 285 287 288 276 268 271 247
231 225 225 224 224 224 220 218 217 220 231 237 241 252 257 248 229 211 212 215 216 214 220 223 228 231 237 243 253 267 265 275 268 276 285 282 278 273 269 269 275 280 277 259 248
232 222 220 220 223 221 221 218 221 229 234 237 241 252 249 238 227 212 206 211 214 218 215 223 230 234 234 245 250 255 265 272 285 288 296 296 287 281 272 269 274 274 264 253 246
232 219 220 215 220 221 219 219 216 223 231 234 239 253 253 245 228 222 210 214 220 222 222 227 230 238 235 241 239 255 259 272 288 296 292 294 291 290 280 267 260 261 257 247 238
221 222 220 212 218 219 214 210 212 217 228 239 238 247 234 225 229 216 216 216 220 225 228 235 234 238 230 241 231 246 251 263 280 294 293 293 292 292 294 272 261 251 251 253 248
217 222 226 214 218 213 208 203 205 207 225 241 228 232 228 221 225 210 211 215 222 222 219 224 232 233 230 235 239 247 268 281 276 282 284 278 263 285 289 281 277 254 254 241 242
217 222 218 213 221 212 202 193 194 189 231 212 202 209 210 209 218 209 208 211 221 226 232 233 236 235 239 241 243 249 259 268 271 267 270 274 236 281 291 343 298 249 239 229 237
215 218 215 225 219 203 195 185 175 208 217 208 199 204 208 207 207 215 211 209 210 210 221 228 228 229 228 226 231 228 233 255 260 204 228 242 214 261 275 264 287 255 253 221 227
216 216 212 214 210 199 190 180 196 217 189 192 201 202 201 201 208 206 211 217 214 216 216 213 220 221 227 231 229 233 227 206 228 202 266 269 238 264 282 266 285 242 218 202 193
222 219 207 210 201 203 179 185 201 210 198 187 186 192 197 204 214 207 214 218 220 213 210 209 222 235 233 236 231 222 216 232 264 276 284 252 269 274 269 268 279 231 218 178 176
221 220 212 200 199 196 183 194 203 202 200 204 191 196 198 197 202 199 203 219 219 218 218 224 224 224 228 224 227 228 240 219 207 215 241 257 258 247 285 226 222 187 202 193 182
200 205 201 211 206 177 188 200 201 198 201 197 207 209 209 200 201 202 205 213 219 219 221 224 228 216 218 218 223 214 219 215 213 217 191 253 252 284 255 192 184 225 226 192 190
206 212 198 203 173 186 191 195 193 193 197 202 208 210 216 207 205 207 212 213 221 222 222 220 226 228 228 230 230 233 237 223 215 214 226 247 255 207 193 227 249 242 302 292 276
212 224 193 202 179 186 193 192 189 190 201 199 206 210 204 202 207 217 216 221 221 220 216 216 220 224 229 234 238 228 232 233 234 240 230 200 243 236 243 221 224 260 303 301 271
201 176 177 193 197 189 188 193 185 194 198 207 213 213 211 211 209 218 218 214 207 206 217 217 216 215 220 234 231 246 259 252 237 231 235 239 248 244 229 249 267 289 294 279 262
227 242 177 183 181 194 187 190 187 189 199 206 209 212 203 194 198 202 204 212 214 220 231 213 222 220 226 223 239 240 247 248 245 240 226 252 253 270 275 274 274 280 281 270 277
225 234 181 192 183 182 186 195 191 188 189 192 196 194 198 199 198 202 204 207 212 220 216 208 227 222 227 234 239 243 247 252 261 248 246 254 265 271 286 286 285 272 266 262 274
220 220 196 196 190 187 197 195 193 189 192 196 188 189 194 199 200 206 215 232 219 219 216 209 218 211 229 235 239 248 245 244 254 254 262 257 281 289 285 282 278 269 268 263 261